Tracking 23762 objects as of 22-Oct-2021
HD Live streaming from Space Station
objects crossing your sky now

CICERO 10

Track CICERO 10 now!
10-day predictions


NORAD ID: 43690
Int'l Code: 2018-088A
Perigee: 499.1 km
Apogee: 516.5 km
Inclination: 85.0 °
Period: 94.6 minutes
Semi major axis: 6878 km
RCS: Unknown
Launch date: November 11, 2018
Source: United States (US)
Launch site: Rocket Lab Launch Complex (RLLC)
aabbcc
Your satellite tracking list
Your tracking list is empty




NASA's NSSDC Master Catalog

Two Line Element Set (TLE):
1 43690U 18088A   21294.92213278  .00002201  00000-0  95318-4 0  9994
2 43690  85.0332 114.2011 0012620 311.7986  48.2177 15.21726564163458
Source of the keplerian elements: AFSPC